Time,TemperatureF,DewpointF,PressureIn,WindDirection,WindDirectionDegrees,WindSpeedMPH,WindSpeedGustMPH,Humidity,HourlyPrecipIn,Conditions,Clouds,dailyrainin,SoftwareType,DateUTC
2014-01-11 00:01:00,31.3,-13.8,29.71,NW,319,2.0,2.0,13,0.00,,,0.00,VWS V14.01,2014-01-11 06:01:00,
2014-01-11 00:06:00,31.2,-13.9,29.71,NW,319,0.0,3.0,13,0.00,,,0.00,VWS V14.01,2014-01-11 06:06:00,
2014-01-11 00:10:00,31.2,-13.9,29.71,NW,318,3.0,3.0,13,0.00,,,0.00,VWS V14.01,2014-01-11 06:10:00,
2014-01-11 00:16:00,31.2,-17.2,29.71,NW,316,0.0,3.0,11,0.00,,,0.00,VWS V14.01,2014-01-11 06:16:00,
2014-01-11 00:21:00,31.3,-17.1,29.71,NW,316,0.0,1.0,11,0.00,,,0.00,VWS V14.01,2014-01-11 06:21:00,
2014-01-11 00:26:00,31.3,-19.0,29.71,NW,316,2.0,2.0,10,0.00,,,0.00,VWS V14.01,2014-01-11 06:26:00,
2014-01-11 00:30:00,31.3,-19.0,29.71,NW,315,2.0,3.0,10,0.00,,,0.00,VWS V14.01,2014-01-11 06:30:00,
2014-01-11 00:35:00,31.3,-23.2,29.70,WNW,295,2.0,5.0,8,0.00,,,0.00,VWS V14.01,2014-01-11 06:35:00,
2014-01-11 00:40:00,31.2,-19.0,29.70,WNW,289,1.0,5.0,10,0.00,,,0.00,VWS V14.01,2014-01-11 06:40:00,
2014-01-11 00:45:00,30.1,-6.1,29.70,WNW,289,0.0,5.0,20,0.00,,,0.00,VWS V14.01,2014-01-11 06:45:00,
2014-01-11 00:50:00,29.3,-2.2,29.70,WNW,289,2.0,2.0,25,0.00,,,0.00,VWS V14.01,2014-01-11 06:50:00,
2014-01-11 00:55:00,28.5,-1.2,29.70,WNW,289,2.0,2.0,27,0.00,,,0.00,VWS V14.01,2014-01-11 06:55:00,
2014-01-11 01:00:00,27.8,-0.3,29.70,WNW,289,2.0,2.0,29,0.00,,,0.00,VWS V14.01,2014-01-11 07:00:00,
2014-01-11 01:05:00,28.1,-1.6,29.71,WNW,284,2.0,5.0,27,0.00,,,0.00,VWS V14.01,2014-01-11 07:05:00,
2014-01-11 01:10:00,29.8,-7.4,29.71,WNW,291,2.0,5.0,19,0.00,,,0.00,VWS V14.01,2014-01-11 07:10:00,
2014-01-11 01:15:00,30.9,-11.3,29.71,WNW,291,1.0,5.0,15,0.00,,,0.00,VWS V14.01,2014-01-11 07:15:00,
2014-01-11 01:20:00,31.3,-13.8,29.69,WNW,289,3.0,3.0,13,0.00,,,0.00,VWS V14.01,2014-01-11 07:20:00,
2014-01-11 01:25:00,30.6,-6.8,29.69,WNW,285,2.0,5.0,19,0.00,,,0.00,VWS V14.01,2014-01-11 07:25:00,
2014-01-11 01:30:00,29.4,-1.2,29.69,West,281,2.0,5.0,26,0.00,,,0.00,VWS V14.01,2014-01-11 07:30:00,
2014-01-11 01:35:00,28.4,1.6,29.71,West,277,2.0,2.0,31,0.00,,,0.00,VWS V14.01,2014-01-11 07:35:00,
2014-01-11 01:40:00,27.6,2.9,29.71,West,271,2.0,5.0,34,0.00,,,0.00,VWS V14.01,2014-01-11 07:40:00,
2014-01-11 01:45:00,27.3,7.2,29.71,WSW,247,2.0,5.0,42,0.00,,,0.00,VWS V14.01,2014-01-11 07:45:00,
2014-01-11 01:50:00,27.2,7.7,29.72,WSW,251,2.0,4.0,43,0.00,,,0.00,VWS V14.01,2014-01-11 07:50:00,
2014-01-11 01:55:00,27.0,6.4,29.72,WSW,251,2.0,5.0,41,0.00,,,0.00,VWS V14.01,2014-01-11 07:55:00,
2014-01-11 02:00:00,27.2,6.1,29.72,WSW,247,4.0,5.0,40,0.00,,,0.00,VWS V14.01,2014-01-11 08:00:00,
2014-01-11 02:05:00,26.9,7.9,29.72,WSW,244,3.0,5.0,44,0.00,,,0.00,VWS V14.01,2014-01-11 08:05:00,
2014-01-11 02:10:00,26.9,6.9,29.72,WSW,247,3.0,5.0,42,0.00,,,0.00,VWS V14.01,2014-01-11 08:10:00,
2014-01-11 02:15:00,26.9,5.8,29.72,WSW,248,3.0,5.0,40,0.00,,,0.00,VWS V14.01,2014-01-11 08:15:00,
2014-01-11 02:20:00,26.7,5.6,29.72,WSW,248,2.0,3.0,40,0.00,,,0.00,VWS V14.01,2014-01-11 08:20:00,
2014-01-11 02:25:00,26.9,3.5,29.72,WSW,246,3.0,5.0,36,0.00,,,0.00,VWS V14.01,2014-01-11 08:25:00,
2014-01-11 02:31:00,26.9,4.1,29.72,WSW,244,5.0,5.0,37,0.00,,,0.00,VWS V14.01,2014-01-11 08:31:00,
2014-01-11 02:36:00,26.9,4.1,29.73,WSW,256,5.0,5.0,37,0.00,,,0.00,VWS V14.01,2014-01-11 08:36:00,
2014-01-11 02:41:00,26.9,3.5,29.73,WSW,251,3.0,6.0,36,0.00,,,0.00,VWS V14.01,2014-01-11 08:41:00,
2014-01-11 02:46:00,26.6,6.1,29.73,WSW,251,2.0,6.0,41,0.00,,,0.00,VWS V14.01,2014-01-11 08:46:00,
2014-01-11 02:51:00,26.1,7.2,29.74,WSW,251,2.0,5.0,44,0.00,,,0.00,VWS V14.01,2014-01-11 08:51:00,
2014-01-11 02:56:00,26.1,8.2,29.74,WSW,257,2.0,5.0,46,0.00,,,0.00,VWS V14.01,2014-01-11 08:56:00,
2014-01-11 03:01:00,26.0,8.6,29.74,WSW,257,2.0,5.0,47,0.00,,,0.00,VWS V14.01,2014-01-11 09:01:00,
2014-01-11 03:06:00,26.0,9.0,29.74,West,261,2.0,3.0,48,0.00,,,0.00,VWS V14.01,2014-01-11 09:06:00,
2014-01-11 03:11:00,26.1,9.1,29.74,West,264,2.0,5.0,48,0.00,,,0.00,VWS V14.01,2014-01-11 09:11:00,
2014-01-11 03:16:00,26.3,10.2,29.74,West,268,1.0,5.0,50,0.00,,,0.00,VWS V14.01,2014-01-11 09:16:00,
2014-01-11 03:21:00,26.7,9.2,29.74,West,272,2.0,5.0,47,0.00,,,0.00,VWS V14.01,2014-01-11 09:21:00,
2014-01-11 03:26:00,28.1,7.4,29.74,West,272,3.0,5.0,41,0.00,,,0.00,VWS V14.01,2014-01-11 09:26:00,
2014-01-11 03:31:00,29.5,1.9,29.74,West,274,2.0,5.0,30,0.00,,,0.00,VWS V14.01,2014-01-11 09:31:00,
2014-01-11 03:36:00,28.4,-2.9,29.73,WSW,258,2.0,7.0,25,0.00,,,0.00,VWS V14.01,2014-01-11 09:36:00,
2014-01-11 03:41:00,28.7,8.0,29.73,West,270,3.0,7.0,41,0.00,,,0.00,VWS V14.01,2014-01-11 09:41:00,
2014-01-11 03:46:00,28.5,6.1,29.73,West,270,0.0,7.0,38,0.00,,,0.00,VWS V14.01,2014-01-11 09:46:00,
2014-01-11 03:51:00,28.2,10.6,29.74,West,270,1.0,3.0,47,0.00,,,0.00,VWS V14.01,2014-01-11 09:51:00,
2014-01-11 03:56:00,28.2,10.1,29.74,West,270,0.0,3.0,46,0.00,,,0.00,VWS V14.01,2014-01-11 09:56:00,
2014-01-11 04:01:00,29.1,10.4,29.74,West,274,2.0,6.0,45,0.00,,,0.00,VWS V14.01,2014-01-11 10:01:00,
2014-01-11 04:06:00,31.0,1.7,29.74,WNW,299,2.0,5.0,28,0.00,,,0.00,VWS V14.01,2014-01-11 10:06:00,
2014-01-11 04:11:00,33.5,-4.3,29.74,NW,309,2.0,7.0,19,0.00,,,0.00,VWS V14.01,2014-01-11 10:11:00,
2014-01-11 04:16:00,36.2,-17.2,29.74,NW,318,4.0,10.0,9,0.00,,,0.00,VWS V14.01,2014-01-11 10:16:00,
2014-01-11 04:21:00,37.5,-21.1,29.72,NNW,335,6.0,12.0,7,0.00,,,0.00,VWS V14.01,2014-01-11 10:21:00,
2014-01-11 04:26:00,38.0,-31.1,29.72,NW,322,5.0,12.0,4,0.00,,,0.00,VWS V14.01,2014-01-11 10:26:00,
2014-01-11 04:31:00,38.0,-31.1,29.72,NW,311,3.0,12.0,4,0.00,,,0.00,VWS V14.01,2014-01-11 10:31:00,
2014-01-11 04:36:00,38.2,-31.0,29.72,NW,320,3.0,11.0,4,0.00,,,0.00,VWS V14.01,2014-01-11 10:36:00,
2014-01-11 04:41:00,38.2,-23.5,29.72,NNW,336,6.0,11.0,6,0.00,,,0.00,VWS V14.01,2014-01-11 10:41:00,
2014-01-11 04:46:00,38.2,-26.9,29.72,WNW,295,5.0,11.0,5,0.00,,,0.00,VWS V14.01,2014-01-11 10:46:00,
2014-01-11 04:51:00,38.2,-20.5,29.73,NW,306,8.0,10.0,7,0.00,,,0.00,VWS V14.01,2014-01-11 10:51:00,
2014-01-11 04:56:00,38.2,-23.5,29.73,NNW,342,8.0,11.0,6,0.00,,,0.00,VWS V14.01,2014-01-11 10:56:00,
2014-01-11 05:01:00,37.9,-18.2,29.73,NNW,332,9.0,12.0,8,0.00,,,0.00,VWS V14.01,2014-01-11 11:01:00,
2014-01-11 05:06:00,37.6,-18.4,29.74,North,354,6.0,9.0,8,0.00,,,0.00,VWS V14.01,2014-01-11 11:06:00,
2014-01-11 05:11:00,37.3,-14.3,29.74,NW,323,2.0,10.0,10,0.00,,,0.00,VWS V14.01,2014-01-11 11:11:00,
2014-01-11 05:16:00,37.0,-14.5,29.74,NNW,346,6.0,10.0,10,0.00,,,0.00,VWS V14.01,2014-01-11 11:16:00,
2014-01-11 05:21:00,37.0,-12.6,29.75,NW,323,2.0,7.0,11,0.00,,,0.00,VWS V14.01,2014-01-11 11:21:00,
2014-01-11 05:26:00,36.9,-16.7,29.75,NW,322,7.0,9.0,9,0.00,,,0.00,VWS V14.01,2014-01-11 11:26:00,
2014-01-11 05:31:00,37.2,-24.2,29.75,WNW,298,5.0,11.0,6,0.00,,,0.00,VWS V14.01,2014-01-11 11:31:00,
2014-01-11 05:36:00,37.2,-36.8,29.76,NW,325,5.0,10.0,3,0.00,,,0.00,VWS V14.01,2014-01-11 11:36:00,
2014-01-11 05:41:00,37.2,-31.7,29.76,NNW,336,6.0,10.0,4,0.00,,,0.00,VWS V14.01,2014-01-11 11:41:00,
2014-01-11 05:46:00,37.3,-43.7,29.76,NW,312,4.0,10.0,2,0.00,,,0.00,VWS V14.01,2014-01-11 11:46:00,
2014-01-11 05:51:00,37.5,-43.6,29.77,NNW,339,5.0,8.0,2,0.00,,,0.00,VWS V14.01,2014-01-11 11:51:00,
2014-01-11 05:56:00,37.6,-54.8,29.77,North,350,7.0,8.0,1,0.00,,,0.00,VWS V14.01,2014-01-11 11:56:00,
2014-01-11 06:01:00,37.9,-43.3,29.77,NNW,336,6.0,11.0,2,0.00,,,0.00,VWS V14.01,2014-01-11 12:01:00,
2014-01-11 06:06:00,37.9,-54.7,29.77,NNW,329,5.0,9.0,1,0.00,,,0.00,VWS V14.01,2014-01-11 12:06:00,
2014-01-11 06:11:00,38.2,0.0,29.77,NW,323,5.0,9.0,0,0.00,,,0.00,VWS V14.01,2014-01-11 12:11:00,
2014-01-11 06:16:00,38.2,0.0,29.77,NW,309,5.0,9.0,0,0.00,,,0.00,VWS V14.01,2014-01-11 12:16:00,
2014-01-11 06:21:00,38.2,0.0,29.76,NW,319,4.0,14.0,0,0.00,,,0.00,VWS V14.01,2014-01-11 12:21:00,
2014-01-11 06:26:00,38.2,0.0,29.76,NNW,333,2.0,14.0,0,0.00,,,0.00,VWS V14.01,2014-01-11 12:26:00,
2014-01-11 06:31:00,38.0,0.0,29.76,NNW,339,2.0,14.0,0,0.00,,,0.00,VWS V14.01,2014-01-11 12:31:00,
2014-01-11 06:36:00,38.2,0.0,29.79,WNW,289,7.0,7.0,0,0.00,,,0.00,VWS V14.01,2014-01-11 12:36:00,
2014-01-11 06:41:00,38.5,0.0,29.79,NNW,337,8.0,10.0,0,0.00,,,0.00,VWS V14.01,2014-01-11 12:41:00,
2014-01-11 06:46:00,38.8,0.0,29.79,NW,323,1.0,10.0,0,0.00,,,0.00,VWS V14.01,2014-01-11 12:46:00,
2014-01-11 06:51:00,38.8,0.0,29.79,North,350,10.0,10.0,0,0.00,,,0.00,VWS V14.01,2014-01-11 12:51:00,
2014-01-11 06:56:00,38.6,0.0,29.79,NNW,344,5.0,10.0,0,0.00,,,0.00,VWS V14.01,2014-01-11 12:56:00,
2014-01-11 07:01:00,38.5,0.0,29.79,NW,312,5.0,10.0,0,0.00,,,0.00,VWS V14.01,2014-01-11 13:01:00,
2014-01-11 07:06:00,38.3,0.0,29.79,NW,325,3.0,10.0,0,0.00,,,0.00,VWS V14.01,2014-01-11 13:06:00,
2014-01-11 07:11:00,38.0,0.0,29.79,NNW,333,3.0,10.0,0,0.00,,,0.00,VWS V14.01,2014-01-11 13:11:00,
2014-01-11 07:16:00,37.8,-31.2,29.79,NNW,339,3.0,10.0,4,0.00,,,0.00,VWS V14.01,2014-01-11 13:16:00,
2014-01-11 07:21:00,37.3,-24.1,29.80,NNW,336,5.0,7.0,6,0.00,,,0.00,VWS V14.01,2014-01-11 13:21:00,
2014-01-11 07:26:00,37.0,-24.4,29.80,NNW,339,2.0,7.0,6,0.00,,,0.00,VWS V14.01,2014-01-11 13:26:00,
2014-01-11 07:31:00,36.8,-24.5,29.80,North,356,1.0,7.0,6,0.00,,,0.00,VWS V14.01,2014-01-11 13:31:00,
2014-01-11 07:36:00,36.5,-19.3,29.81,NNW,335,2.0,4.0,8,0.00,,,0.00,VWS V14.01,2014-01-11 13:36:00,
2014-01-11 07:41:00,36.0,-13.4,29.81,NNW,343,1.0,5.0,11,0.00,,,0.00,VWS V14.01,2014-01-11 13:41:00,
2014-01-11 07:46:00,35.6,-13.7,29.81,NNW,335,5.0,5.0,11,0.00,,,0.00,VWS V14.01,2014-01-11 13:46:00,
2014-01-11 07:51:00,35.5,-12.1,29.81,NNW,328,2.0,4.0,12,0.00,,,0.00,VWS V14.01,2014-01-11 13:51:00,
2014-01-11 07:56:00,35.2,-10.7,29.81,NNW,344,4.0,5.0,13,0.00,,,0.00,VWS V14.01,2014-01-11 13:56:00,
2014-01-11 08:01:00,35.0,-10.9,29.81,NW,308,2.0,7.0,13,0.00,,,0.00,VWS V14.01,2014-01-11 14:01:00,
2014-01-11 08:06:00,35.3,-12.2,29.82,North,354,3.0,7.0,12,0.00,,,0.00,VWS V14.01,2014-01-11 14:06:00,
2014-01-11 08:11:00,35.3,-12.2,29.82,NNW,340,5.0,9.0,12,0.00,,,0.00,VWS V14.01,2014-01-11 14:11:00,
2014-01-11 08:16:00,35.5,-12.1,29.82,NW,315,4.0,9.0,12,0.00,,,0.00,VWS V14.01,2014-01-11 14:16:00,
2014-01-11 08:21:00,35.9,-17.4,29.84,WNW,301,5.0,11.0,9,0.00,,,0.00,VWS V14.01,2014-01-11 14:21:00,
2014-01-11 08:26:00,36.0,-17.4,29.84,NW,316,4.0,11.0,9,0.00,,,0.00,VWS V14.01,2014-01-11 14:26:00,
2014-01-11 08:31:00,36.2,-19.5,29.84,WNW,295,2.0,11.0,8,0.00,,,0.00,VWS V14.01,2014-01-11 14:31:00,
2014-01-11 08:36:00,36.5,-21.8,29.84,NW,322,3.0,7.0,7,0.00,,,0.00,VWS V14.01,2014-01-11 14:36:00,
2014-01-11 08:41:00,36.6,-14.8,29.84,NW,309,2.0,8.0,10,0.00,,,0.00,VWS V14.01,2014-01-11 14:41:00,
2014-01-11 08:46:00,36.8,-24.5,29.84,NNW,339,5.0,8.0,6,0.00,,,0.00,VWS V14.01,2014-01-11 14:46:00,
2014-01-11 08:51:00,36.9,-21.5,29.85,NW,315,2.0,7.0,7,0.00,,,0.00,VWS V14.01,2014-01-11 14:51:00,
2014-01-11 08:56:00,37.0,-21.4,29.85,WNW,299,2.0,10.0,7,0.00,,,0.00,VWS V14.01,2014-01-11 14:56:00,
2014-01-11 09:01:00,37.2,-31.7,29.85,NW,313,0.0,10.0,4,0.00,,,0.00,VWS V14.01,2014-01-11 15:01:00,
2014-01-11 09:06:00,37.3,-27.5,29.85,North,359,5.0,7.0,5,0.00,,,0.00,VWS V14.01,2014-01-11 15:06:00,
2014-01-11 09:11:00,37.6,-18.4,29.85,NW,318,5.0,8.0,8,0.00,,,0.00,VWS V14.01,2014-01-11 15:11:00,
2014-01-11 09:16:00,37.9,-27.1,29.85,WNW,301,7.0,10.0,5,0.00,,,0.00,VWS V14.01,2014-01-11 15:16:00,
2014-01-11 09:21:00,38.0,-31.1,29.86,WNW,299,7.0,8.0,4,0.00,,,0.00,VWS V14.01,2014-01-11 15:21:00,
2014-01-11 09:26:00,38.5,-30.7,29.86,West,278,6.0,9.0,4,0.00,,,0.00,VWS V14.01,2014-01-11 15:26:00,
2014-01-11 09:31:00,38.9,0.0,29.86,WNW,296,5.0,9.0,0,0.00,,,0.00,VWS V14.01,2014-01-11 15:31:00,
2014-01-11 09:36:00,39.3,0.0,29.86,WNW,294,7.0,12.0,0,0.00,,,0.00,VWS V14.01,2014-01-11 15:36:00,
2014-01-11 09:41:00,39.2,0.0,29.86,West,278,7.0,12.0,0,0.00,,,0.00,VWS V14.01,2014-01-11 15:41:00,
2014-01-11 09:46:00,38.5,-26.6,29.86,WNW,282,5.0,12.0,5,0.00,,,0.00,VWS V14.01,2014-01-11 15:46:00,
2014-01-11 09:51:00,38.6,-54.2,29.88,West,281,5.0,12.0,1,0.00,,,0.00,VWS V14.01,2014-01-11 15:51:00,
2014-01-11 09:56:00,39.1,0.0,29.88,West,278,7.0,12.0,0,0.00,,,0.00,VWS V14.01,2014-01-11 15:56:00,
2014-01-11 10:01:00,39.3,0.0,29.88,West,261,3.0,12.0,0,0.00,,,0.00,VWS V14.01,2014-01-11 16:01:00,
2014-01-11 10:06:00,39.3,0.0,29.89,West,281,7.0,10.0,0,0.00,,,0.00,VWS V14.01,2014-01-11 16:06:00,
2014-01-11 10:11:00,39.3,0.0,29.89,West,278,7.0,10.0,0,0.00,,,0.00,VWS V14.01,2014-01-11 16:11:00,
2014-01-11 10:16:00,39.5,0.0,29.89,West,274,4.0,11.0,0,0.00,,,0.00,VWS V14.01,2014-01-11 16:16:00,
2014-01-11 10:21:00,39.8,0.0,29.87,WNW,296,6.0,10.0,0,0.00,,,0.00,VWS V14.01,2014-01-11 16:21:00,
2014-01-11 10:26:00,40.2,0.0,29.87,WNW,296,7.0,10.0,0,0.00,,,0.00,VWS V14.01,2014-01-11 16:26:00,
2014-01-11 10:31:00,40.9,0.0,29.87,WNW,292,6.0,10.0,0,0.00,,,0.00,VWS V14.01,2014-01-11 16:31:00,
2014-01-11 10:36:00,41.3,0.0,29.89,WNW,294,5.0,8.0,0,0.00,,,0.00,VWS V14.01,2014-01-11 16:36:00,
2014-01-11 10:41:00,41.9,0.0,29.89,NW,312,1.0,8.0,0,0.00,,,0.00,VWS V14.01,2014-01-11 16:41:00,
2014-01-11 10:46:00,42.3,0.0,29.89,NW,309,4.0,10.0,0,0.00,,,0.00,VWS V14.01,2014-01-11 16:46:00,
2014-01-11 10:51:00,42.8,0.0,29.89,NW,306,1.0,8.0,0,0.00,,,0.00,VWS V14.01,2014-01-11 16:51:00,
2014-01-11 10:56:00,43.2,0.0,29.89,WNW,296,0.0,10.0,0,0.00,,,0.00,VWS V14.01,2014-01-11 16:56:00,
2014-01-11 11:01:00,43.5,43.5,29.89,WNW,291,5.0,10.0,100,0.00,,,0.00,VWS V14.01,2014-01-11 17:01:00,
2014-01-11 11:06:00,43.8,43.8,29.88,North,352,3.0,10.0,100,0.00,,,0.00,VWS V14.01,2014-01-11 17:06:00,
2014-01-11 11:12:00,43.9,43.9,29.88,NNW,336,3.0,10.0,100,0.00,,,0.00,VWS V14.01,2014-01-11 17:12:00,
2014-01-11 11:17:00,44.1,44.1,29.88,North,354,5.0,10.0,100,0.00,,,0.00,VWS V14.01,2014-01-11 17:17:00,
2014-01-11 11:22:00,44.2,44.2,29.87,NNW,339,3.0,12.0,100,0.00,,,0.00,VWS V14.01,2014-01-11 17:22:00,
2014-01-11 11:27:00,44.5,44.5,29.87,NW,325,2.0,12.0,100,0.00,,,0.00,VWS V14.01,2014-01-11 17:27:00,
2014-01-11 11:32:00,44.6,44.6,29.86,NW,316,5.0,12.0,100,0.00,,,0.00,VWS V14.01,2014-01-11 17:32:00,
2014-01-11 11:37:00,44.9,44.9,29.86,NNW,343,0.0,7.0,100,0.00,,,0.00,VWS V14.01,2014-01-11 17:37:00,
2014-01-11 11:42:00,45.4,45.4,29.86,WNW,296,5.0,8.0,100,0.00,,,0.00,VWS V14.01,2014-01-11 17:42:00,
2014-01-11 11:47:00,45.2,45.2,29.86,North,354,7.0,11.0,100,0.00,,,0.00,VWS V14.01,2014-01-11 17:47:00,
2014-01-11 11:52:00,44.9,44.9,29.85,North,356,7.0,11.0,100,0.00,,,0.00,VWS V14.01,2014-01-11 17:52:00,
2014-01-11 11:57:00,45.1,45.1,29.85,NNW,346,2.0,11.0,100,0.00,,,0.00,VWS V14.01,2014-01-11 17:57:00,
2014-01-11 12:02:00,45.5,45.5,29.85,NW,325,4.0,11.0,100,0.00,,,0.00,VWS V14.01,2014-01-11 18:02:00,
2014-01-11 12:07:00,45.7,45.7,29.84,NW,326,8.0,8.0,100,0.00,,,0.00,VWS V14.01,2014-01-11 18:07:00,
2014-01-11 12:12:00,45.8,45.8,29.84,NNW,333,2.0,8.0,100,0.00,,,0.00,VWS V14.01,2014-01-11 18:12:00,
2014-01-11 12:17:00,46.0,46.0,29.84,North,359,6.0,9.0,100,0.00,,,0.00,VWS V14.01,2014-01-11 18:17:00,
2014-01-11 12:22:00,46.1,46.1,29.84,North,359,1.0,6.0,100,0.00,,,0.00,VWS V14.01,2014-01-11 18:22:00,
2014-01-11 12:27:00,46.4,46.4,29.84,WNW,302,2.0,9.0,100,0.00,,,0.00,VWS V14.01,2014-01-11 18:27:00,
2014-01-11 12:32:00,46.4,46.4,29.84,North,359,4.0,9.0,100,0.00,,,0.00,VWS V14.01,2014-01-11 18:32:00,
2014-01-11 12:37:00,46.5,46.5,29.84,NNW,336,5.0,12.0,100,0.00,,,0.00,VWS V14.01,2014-01-11 18:37:00,
2014-01-11 12:42:00,47.0,47.0,29.84,NW,320,0.0,12.0,100,0.00,,,0.00,VWS V14.01,2014-01-11 18:42:00,
2014-01-11 12:47:00,47.1,47.1,29.84,WNW,302,6.0,12.0,100,0.00,,,0.00,VWS V14.01,2014-01-11 18:47:00,
2014-01-11 12:52:00,47.1,47.1,29.82,North,359,7.0,7.0,100,0.00,,,0.00,VWS V14.01,2014-01-11 18:52:00,
2014-01-11 12:57:00,47.1,47.1,29.82,NNW,339,2.0,10.0,100,0.00,,,0.00,VWS V14.01,2014-01-11 18:57:00,
2014-01-11 13:02:00,47.1,47.1,29.82,North,353,4.0,12.0,100,0.00,,,0.00,VWS V14.01,2014-01-11 19:02:00,
2014-01-11 13:07:00,47.3,47.3,29.81,NW,304,0.0,7.0,100,0.00,,,0.00,VWS V14.01,2014-01-11 19:07:00,
2014-01-11 13:12:00,47.6,47.6,29.81,North,356,3.0,12.0,100,0.00,,,0.00,VWS V14.01,2014-01-11 19:12:00,
2014-01-11 13:17:00,47.4,47.4,29.81,NNW,328,6.0,12.0,100,0.00,,,0.00,VWS V14.01,2014-01-11 19:17:00,
2014-01-11 13:22:00,47.4,47.4,29.80,North,349,10.0,13.0,100,0.00,,,0.00,VWS V14.01,2014-01-11 19:22:00,
2014-01-11 13:27:00,47.1,47.1,29.80,North,359,7.0,13.0,100,0.00,,,0.00,VWS V14.01,2014-01-11 19:27:00,
2014-01-11 13:32:00,47.0,47.0,29.80,North,353,12.0,13.0,100,0.00,,,0.00,VWS V14.01,2014-01-11 19:32:00,
2014-01-11 13:37:00,47.0,47.0,29.79,North,0,10.0,12.0,100,0.00,,,0.00,VWS V14.01,2014-01-11 19:37:00,
2014-01-11 13:42:00,46.1,46.1,29.79,North,0,17.0,17.0,100,0.00,,,0.00,VWS V14.01,2014-01-11 19:42:00,
2014-01-11 13:47:00,46.8,46.8,29.79,North,353,2.0,17.0,100,0.00,,,0.00,VWS V14.01,2014-01-11 19:47:00,
2014-01-11 13:52:00,48.2,48.2,29.78,NW,308,2.0,6.0,100,0.00,,,0.00,VWS V14.01,2014-01-11 19:52:00,
2014-01-11 13:57:00,48.8,48.8,29.78,WNW,294,3.0,6.0,100,0.00,,,0.00,VWS V14.01,2014-01-11 19:57:00,
2014-01-11 14:02:00,49.2,49.2,29.78,NW,304,0.0,7.0,100,0.00,,,0.00,VWS V14.01,2014-01-11 20:02:00,
2014-01-11 14:07:00,49.5,49.0,29.77,NE,51,0.0,6.0,98,0.00,,,0.00,VWS V14.01,2014-01-11 20:07:00,
2014-01-11 14:08:00,49.4,48.3,29.77,North,356,0.0,6.0,96,0.00,,,0.00,VWS V14.01,2014-01-11 20:08:00,
2014-01-11 14:13:00,49.5,49.5,29.77,WNW,292,2.0,8.0,100,0.00,,,0.00,VWS V14.01,2014-01-11 20:13:00,
2014-01-11 14:18:00,50.1,50.1,29.77,West,275,7.0,7.0,100,0.00,,,0.00,VWS V14.01,2014-01-11 20:18:00,
2014-01-11 14:23:00,50.5,49.4,29.77,WNW,292,2.0,7.0,96,0.00,,,0.00,VWS V14.01,2014-01-11 20:23:00,
2014-01-11 14:28:00,50.5,50.2,29.77,WNW,284,2.0,7.0,99,0.00,,,0.00,VWS V14.01,2014-01-11 20:28:00,
2014-01-11 14:33:00,50.7,49.0,29.77,WNW,285,6.0,6.0,94,0.00,,,0.00,VWS V14.01,2014-01-11 20:33:00,
2014-01-11 14:38:00,50.8,48.0,29.77,NNW,335,3.0,7.0,90,0.00,,,0.00,VWS V14.01,2014-01-11 20:38:00,
2014-01-11 14:43:00,51.1,50.3,29.77,NNW,343,0.0,7.0,97,0.00,,,0.00,VWS V14.01,2014-01-11 20:43:00,
2014-01-11 14:48:00,51.1,51.1,29.77,NNW,336,3.0,3.0,100,0.00,,,0.00,VWS V14.01,2014-01-11 20:48:00,
2014-01-11 14:53:00,51.4,51.4,29.77,NW,325,0.0,7.0,100,0.00,,,0.00,VWS V14.01,2014-01-11 20:53:00,
2014-01-11 14:58:00,51.6,51.6,29.77,NW,316,2.0,7.0,100,0.00,,,0.00,VWS V14.01,2014-01-11 20:58:00,
2014-01-11 15:03:00,52.0,52.0,29.76,WNW,302,1.0,1.0,100,0.00,,,0.00,VWS V14.01,2014-01-11 21:03:00,
2014-01-11 15:08:00,52.6,52.6,29.76,SW,233,7.0,8.0,100,0.00,,,0.00,VWS V14.01,2014-01-11 21:08:00,
2014-01-11 15:13:00,52.5,52.5,29.76,WSW,257,2.0,12.0,100,0.00,,,0.00,VWS V14.01,2014-01-11 21:13:00,
2014-01-11 15:18:00,52.5,52.5,29.74,WSW,244,10.0,10.0,100,0.00,,,0.00,VWS V14.01,2014-01-11 21:18:00,
2014-01-11 15:23:00,52.5,52.5,29.74,WSW,251,7.0,10.0,100,0.00,,,0.00,VWS V14.01,2014-01-11 21:23:00,
2014-01-11 15:28:00,52.8,52.8,29.74,WSW,256,2.0,10.0,100,0.00,,,0.00,VWS V14.01,2014-01-11 21:28:00,
2014-01-11 15:33:00,53.1,53.1,29.74,West,278,2.0,3.0,100,0.00,,,0.00,VWS V14.01,2014-01-11 21:33:00,
2014-01-11 15:34:00,53.1,53.1,29.74,WSW,250,0.0,5.0,100,0.00,,,0.00,VWS V14.01,2014-01-11 21:34:00,
2014-01-11 15:39:00,53.1,53.1,29.74,WSW,240,13.0,13.0,100,0.00,,,0.00,VWS V14.01,2014-01-11 21:39:00,
2014-01-11 15:44:00,53.1,53.1,29.74,WSW,247,7.0,14.0,100,0.00,,,0.00,VWS V14.01,2014-01-11 21:44:00,
2014-01-11 15:49:00,53.1,53.1,29.74,West,265,2.0,10.0,100,0.00,,,0.00,VWS V14.01,2014-01-11 21:49:00,
2014-01-11 15:54:00,53.2,53.2,29.74,West,274,3.0,10.0,100,0.00,,,0.00,VWS V14.01,2014-01-11 21:54:00,
2014-01-11 15:59:00,53.1,53.1,29.74,West,278,2.0,12.0,100,0.00,,,0.00,VWS V14.01,2014-01-11 21:59:00,
2014-01-11 16:04:00,53.1,53.1,29.74,WSW,248,7.0,8.0,100,0.00,,,0.00,VWS V14.01,2014-01-11 22:04:00,
2014-01-11 16:09:00,52.9,52.9,29.74,WSW,241,8.0,10.0,100,0.00,,,0.00,VWS V14.01,2014-01-11 22:09:00,
2014-01-11 16:14:00,52.8,52.8,29.74,WSW,243,10.0,14.0,100,0.00,,,0.00,VWS V14.01,2014-01-11 22:14:00,
2014-01-11 16:19:00,52.8,52.8,29.70,WSW,244,6.0,10.0,100,0.00,,,0.00,VWS V14.01,2014-01-11 22:19:00,
2014-01-11 16:24:00,52.8,52.8,29.70,SW,223,14.0,14.0,100,0.00,,,0.00,VWS V14.01,2014-01-11 22:24:00,
2014-01-11 16:29:00,52.5,52.5,29.70,WSW,240,10.0,14.0,100,0.00,,,0.00,VWS V14.01,2014-01-11 22:29:00,
2014-01-11 16:34:00,52.3,52.3,29.70,WSW,244,7.0,11.0,100,0.00,,,0.00,VWS V14.01,2014-01-11 22:34:00,
2014-01-11 16:39:00,52.3,52.3,29.70,WSW,240,5.0,11.0,100,0.00,,,0.00,VWS V14.01,2014-01-11 22:39:00,
2014-01-11 16:44:00,52.3,52.3,29.70,WSW,247,6.0,12.0,100,0.00,,,0.00,VWS V14.01,2014-01-11 22:44:00,
2014-01-11 16:49:00,52.0,52.0,29.69,WSW,247,5.0,10.0,100,0.00,,,0.00,VWS V14.01,2014-01-11 22:49:00,
2014-01-11 16:54:00,51.7,51.7,29.69,SW,236,6.0,10.0,100,0.00,,,0.00,VWS V14.01,2014-01-11 22:54:00,
2014-01-11 16:59:00,51.4,51.4,29.69,SW,232,5.0,10.0,100,0.00,,,0.00,VWS V14.01,2014-01-11 22:59:00,
2014-01-11 17:04:00,51.1,51.1,29.70,SW,229,5.0,7.0,100,0.00,,,0.00,VWS V14.01,2014-01-11 23:04:00,
2014-01-11 17:09:00,50.8,50.8,29.70,SSW,213,8.0,10.0,100,0.00,,,0.00,VWS V14.01,2014-01-11 23:09:00,
2014-01-11 17:14:00,50.5,50.5,29.70,SW,222,7.0,10.0,100,0.00,,,0.00,VWS V14.01,2014-01-11 23:14:00,
2014-01-11 17:19:00,50.1,50.1,29.69,SSW,208,7.0,7.0,100,0.00,,,0.00,VWS V14.01,2014-01-11 23:19:00,
2014-01-11 17:24:00,49.6,49.6,29.69,SW,222,8.0,10.0,100,0.00,,,0.00,VWS V14.01,2014-01-11 23:24:00,
2014-01-11 17:29:00,49.2,49.2,29.69,SW,219,5.0,10.0,100,0.00,,,0.00,VWS V14.01,2014-01-11 23:29:00,
2014-01-11 17:34:00,48.6,48.6,29.69,SW,223,7.0,8.0,100,0.00,,,0.00,VWS V14.01,2014-01-11 23:34:00,
2014-01-11 17:39:00,48.0,48.0,29.69,SSW,210,7.0,8.0,100,0.00,,,0.00,VWS V14.01,2014-01-11 23:39:00,
2014-01-11 17:44:00,47.4,47.4,29.69,SW,230,7.0,10.0,100,0.00,,,0.00,VWS V14.01,2014-01-11 23:44:00,
2014-01-11 17:49:00,47.3,47.3,29.70,SW,220,10.0,11.0,100,0.00,,,0.00,VWS V14.01,2014-01-11 23:49:00,
2014-01-11 17:54:00,47.0,47.0,29.70,SSW,213,6.0,11.0,100,0.00,,,0.00,VWS V14.01,2014-01-11 23:54:00,
2014-01-11 17:59:00,46.5,46.5,29.70,SSW,210,6.0,11.0,100,0.00,,,0.00,VWS V14.01,2014-01-11 23:59:00,
2014-01-11 18:04:00,46.0,46.0,29.69,SW,215,7.0,8.0,100,0.00,,,0.00,VWS V14.01,2014-01-12 00:04:00,
2014-01-11 18:09:00,45.4,45.4,29.69,SW,222,8.0,8.0,100,0.00,,,0.00,VWS V14.01,2014-01-12 00:09:00,
2014-01-11 18:14:00,44.8,44.8,29.69,SSW,209,7.0,8.0,100,0.00,,,0.00,VWS V14.01,2014-01-12 00:14:00,
2014-01-11 18:19:00,44.5,44.5,29.69,SW,215,7.0,8.0,100,0.00,,,0.00,VWS V14.01,2014-01-12 00:19:00,
2014-01-11 18:24:00,44.2,44.2,29.69,SSW,208,7.0,10.0,100,0.00,,,0.00,VWS V14.01,2014-01-12 00:24:00,
2014-01-11 18:29:00,44.2,44.2,29.69,SW,215,7.0,10.0,100,0.00,,,0.00,VWS V14.01,2014-01-12 00:29:00,
2014-01-11 18:34:00,43.8,43.8,29.69,SW,217,7.0,7.0,100,0.00,,,0.00,VWS V14.01,2014-01-12 00:34:00,
2014-01-11 18:39:00,43.3,43.3,29.69,SW,215,7.0,8.0,100,0.00,,,0.00,VWS V14.01,2014-01-12 00:39:00,
2014-01-11 18:44:00,43.2,43.2,29.69,SSW,209,8.0,8.0,100,0.00,,,0.00,VWS V14.01,2014-01-12 00:44:00,
2014-01-11 18:49:00,43.2,43.2,29.69,SSW,206,7.0,8.0,100,0.00,,,0.00,VWS V14.01,2014-01-12 00:49:00,
2014-01-11 18:54:00,43.1,43.1,29.69,SSW,213,6.0,8.0,100,0.00,,,0.00,VWS V14.01,2014-01-12 00:54:00,
2014-01-11 18:59:00,42.9,42.9,29.69,SSW,210,7.0,8.0,100,0.00,,,0.00,VWS V14.01,2014-01-12 00:59:00,
2014-01-11 19:04:00,42.9,42.9,29.68,SSW,203,5.0,8.0,100,0.00,,,0.00,VWS V14.01,2014-01-12 01:04:00,
2014-01-11 19:09:00,42.9,42.9,29.68,SW,215,5.0,10.0,100,0.00,,,0.00,VWS V14.01,2014-01-12 01:09:00,
2014-01-11 19:14:00,43.1,43.1,29.68,SSW,212,8.0,10.0,100,0.00,,,0.00,VWS V14.01,2014-01-12 01:14:00,
2014-01-11 19:19:00,43.1,43.1,29.69,SSW,208,7.0,9.0,100,0.00,,,0.00,VWS V14.01,2014-01-12 01:19:00,
2014-01-11 19:24:00,42.9,42.9,29.69,SW,227,8.0,10.0,100,0.00,,,0.00,VWS V14.01,2014-01-12 01:24:00,
2014-01-11 19:29:00,42.8,42.8,29.69,SSW,209,8.0,11.0,100,0.00,,,0.00,VWS V14.01,2014-01-12 01:29:00,
2014-01-11 19:34:00,42.6,42.6,29.69,SSW,212,7.0,10.0,100,0.00,,,0.00,VWS V14.01,2014-01-12 01:34:00,
2014-01-11 19:39:00,42.6,42.6,29.69,SW,219,10.0,12.0,100,0.00,,,0.00,VWS V14.01,2014-01-12 01:39:00,
2014-01-11 19:44:00,42.5,42.5,29.69,SSW,209,7.0,12.0,100,0.00,,,0.00,VWS V14.01,2014-01-12 01:44:00,
2014-01-11 19:49:00,42.2,42.2,29.68,SSW,213,12.0,12.0,100,0.00,,,0.00,VWS V14.01,2014-01-12 01:49:00,
2014-01-11 19:54:00,42.3,42.3,29.68,SW,215,7.0,12.0,100,0.00,,,0.00,VWS V14.01,2014-01-12 01:54:00,
2014-01-11 19:59:00,42.3,42.3,29.68,SSW,200,12.0,13.0,100,0.00,,,0.00,VWS V14.01,2014-01-12 01:59:00,
2014-01-11 20:04:00,42.2,42.2,29.68,SW,216,7.0,10.0,100,0.00,,,0.00,VWS V14.01,2014-01-12 02:04:00,
2014-01-11 20:09:00,41.9,41.9,29.68,SSW,208,8.0,10.0,100,0.00,,,0.00,VWS V14.01,2014-01-12 02:09:00,
2014-01-11 20:14:00,42.1,42.1,29.68,SSW,213,6.0,10.0,100,0.00,,,0.00,VWS V14.01,2014-01-12 02:14:00,
2014-01-11 20:19:00,42.1,42.1,29.67,SW,222,10.0,12.0,100,0.00,,,0.00,VWS V14.01,2014-01-12 02:19:00,
2014-01-11 20:24:00,42.5,42.5,29.67,SW,220,10.0,13.0,100,0.00,,,0.00,VWS V14.01,2014-01-12 02:24:00,
2014-01-11 20:29:00,42.6,42.6,29.67,SW,217,8.0,13.0,100,0.00,,,0.00,VWS V14.01,2014-01-12 02:29:00,
2014-01-11 20:34:00,42.3,42.3,29.66,SW,216,10.0,13.0,100,0.00,,,0.00,VWS V14.01,2014-01-12 02:34:00,
2014-01-11 20:39:00,42.5,42.5,29.66,SW,223,12.0,14.0,100,0.00,,,0.00,VWS V14.01,2014-01-12 02:39:00,
2014-01-11 20:44:00,42.5,42.5,29.66,SSW,206,7.0,14.0,100,0.00,,,0.00,VWS V14.01,2014-01-12 02:44:00,
2014-01-11 20:49:00,42.2,42.2,29.65,SW,220,11.0,16.0,100,0.00,,,0.00,VWS V14.01,2014-01-12 02:49:00,
2014-01-11 20:54:00,42.1,42.1,29.65,SW,226,10.0,16.0,100,0.00,,,0.00,VWS V14.01,2014-01-12 02:54:00,
2014-01-11 20:59:00,41.9,41.9,29.65,SW,215,11.0,16.0,100,0.00,,,0.00,VWS V14.01,2014-01-12 02:59:00,
2014-01-11 21:04:00,41.6,41.6,29.64,SW,220,10.0,13.0,100,0.00,,,0.00,VWS V14.01,2014-01-12 03:04:00,
2014-01-11 21:09:00,41.2,41.2,29.64,SSW,210,7.0,13.0,100,0.00,,,0.00,VWS V14.01,2014-01-12 03:09:00,
2014-01-11 21:14:00,40.8,40.8,29.64,SW,220,11.0,13.0,100,0.00,,,0.00,VWS V14.01,2014-01-12 03:14:00,
2014-01-11 21:19:00,40.8,40.8,29.64,SW,215,9.0,12.0,100,0.00,,,0.00,VWS V14.01,2014-01-12 03:19:00,
2014-01-11 21:24:00,40.9,40.9,29.64,SW,224,7.0,12.0,100,0.00,,,0.00,VWS V14.01,2014-01-12 03:24:00,
2014-01-11 21:29:00,40.9,40.9,29.64,SW,226,6.0,12.0,100,0.00,,,0.00,VWS V14.01,2014-01-12 03:29:00,
2014-01-11 21:34:00,40.9,40.9,29.63,SW,216,12.0,14.0,100,0.00,,,0.00,VWS V14.01,2014-01-12 03:34:00,
2014-01-11 21:39:00,40.8,40.8,29.63,SW,215,11.0,14.0,100,0.00,,,0.00,VWS V14.01,2014-01-12 03:39:00,
2014-01-11 21:44:00,40.5,40.5,29.63,SW,222,9.0,14.0,100,0.00,,,0.00,VWS V14.01,2014-01-12 03:44:00,
2014-01-11 21:49:00,40.1,40.1,29.63,SSW,212,5.0,7.0,100,0.00,,,0.00,VWS V14.01,2014-01-12 03:49:00,
2014-01-11 21:54:00,39.8,39.8,29.63,SW,215,7.0,11.0,100,0.00,,,0.00,VWS V14.01,2014-01-12 03:54:00,
2014-01-11 21:59:00,39.6,39.6,29.63,SW,234,15.0,16.0,100,0.00,,,0.00,VWS V14.01,2014-01-12 03:59:00,
2014-01-11 22:04:00,39.5,39.5,29.62,SW,234,10.0,13.0,100,0.00,,,0.00,VWS V14.01,2014-01-12 04:04:00,
2014-01-11 22:09:00,39.5,39.5,29.62,SW,234,12.0,13.0,100,0.00,,,0.00,VWS V14.01,2014-01-12 04:09:00,
2014-01-11 22:14:00,39.3,39.3,29.62,SW,232,12.0,14.0,100,0.00,,,0.00,VWS V14.01,2014-01-12 04:14:00,
2014-01-11 22:19:00,39.6,39.6,29.60,SW,217,11.0,13.0,100,0.00,,,0.00,VWS V14.01,2014-01-12 04:19:00,
2014-01-11 22:24:00,39.9,39.9,29.60,SW,219,11.0,16.0,100,0.00,,,0.00,VWS V14.01,2014-01-12 04:24:00,
2014-01-11 22:29:00,39.8,39.8,29.60,SW,227,13.0,16.0,100,0.00,,,0.00,VWS V14.01,2014-01-12 04:29:00,
2014-01-11 22:34:00,39.3,39.3,29.59,SW,229,11.0,11.0,100,0.00,,,0.00,VWS V14.01,2014-01-12 04:34:00,
2014-01-11 22:39:00,39.2,39.2,29.59,SW,222,11.0,15.0,100,0.00,,,0.00,VWS V14.01,2014-01-12 04:39:00,
2014-01-11 22:44:00,39.6,39.6,29.59,SW,223,10.0,16.0,100,0.00,,,0.00,VWS V14.01,2014-01-12 04:44:00,
2014-01-11 22:49:00,39.9,39.9,29.58,SW,233,14.0,16.0,100,0.00,,,0.00,VWS V14.01,2014-01-12 04:49:00,
2014-01-11 22:54:00,40.2,40.2,29.58,SW,226,12.0,16.0,100,0.00,,,0.00,VWS V14.01,2014-01-12 04:54:00,
2014-01-11 22:59:00,40.5,40.5,29.58,SW,232,8.0,16.0,100,0.00,,,0.00,VWS V14.01,2014-01-12 04:59:00,
2014-01-11 23:01:00,40.5,40.5,29.58,WSW,239,8.0,16.0,100,0.00,,,0.00,VWS V14.01,2014-01-12 05:01:00,
2014-01-11 23:02:00,40.5,40.5,29.58,SW,227,7.0,16.0,100,0.00,,,0.00,VWS V14.01,2014-01-12 05:02:00,
2014-01-11 23:07:00,40.5,40.5,29.58,SW,222,10.0,13.0,100,0.00,,,0.00,VWS V14.01,2014-01-12 05:07:00,
2014-01-11 23:12:00,40.6,40.6,29.58,SW,236,10.0,16.0,100,0.00,,,0.00,VWS V14.01,2014-01-12 05:12:00,
2014-01-11 23:17:00,40.3,40.3,29.58,SW,236,14.0,16.0,100,0.00,,,0.00,VWS V14.01,2014-01-12 05:17:00,
2014-01-11 23:22:00,39.9,39.9,29.57,SW,217,11.0,16.0,100,0.00,,,0.00,VWS V14.01,2014-01-12 05:22:00,
2014-01-11 23:27:00,39.6,39.6,29.57,SW,224,10.0,16.0,100,0.00,,,0.00,VWS V14.01,2014-01-12 05:27:00,
2014-01-11 23:34:00,39.5,39.5,29.56,SW,217,10.0,10.0,100,0.00,,,0.00,VWS V14.01,2014-01-12 05:34:00,
2014-01-11 23:39:00,39.3,39.3,29.56,SW,230,7.0,13.0,100,0.00,,,0.00,VWS V14.01,2014-01-12 05:39:00,
2014-01-11 23:44:00,39.5,39.5,29.56,SW,222,9.0,14.0,100,0.00,,,0.00,VWS V14.01,2014-01-12 05:44:00,
2014-01-11 23:49:00,39.5,39.5,29.55,SW,216,9.0,12.0,100,0.00,,,0.00,VWS V14.01,2014-01-12 05:49:00,
2014-01-11 23:54:00,39.3,39.3,29.55,SW,236,11.0,12.0,100,0.00,,,0.00,VWS V14.01,2014-01-12 05:54:00,
2014-01-11 23:59:00,39.5,39.5,29.55,SW,226,11.0,13.0,100,0.00,,,0.00,VWS V14.01,2014-01-12 05:59:00,